Weather History for Freeport, IL

Change the Weather History Date:

Tuesday, October 16, 2012

  Actual Average Record
Temperature  
Mean Temperature 56 °F -  
Max Temperature 72 °F 62 °F 82 °F (1989)
Min Temperature 41 °F 37 °F 26 °F (1991)
Degree Days  
Heating Degree Days 9    
Growing Degree Days 6 (Base 50)    
Moisture  
Dew Point 47 °F    
Average Humidity 70    
Maximum Humidity 89    
Minimum Humidity 48    
Precipitation  
Precipitation 0.00 in - - ()
Sea Level Pressure  
Sea Level Pressure 29.70 in    
Wind  
Wind Speed 11 mph (SE)    
Max Wind Speed 24 mph    
Max Gust Speed 32 mph    
Visibility 10 miles    
Events      
Averages and records for this station are not official NWS values.
T = Trace of Precipitation, MM = Missing Value Source: NWS Daily Summary

Daily Weather History Graph

Daily Weather History Graph

Search for Another Location

Airport:

Trip Planner

Search our weather history database for the weather conditions in past years. The results will help you decide how hot, cold, wet, or windy it might be!

Date:

Astronomy

Oct. 16, 2012 Rise Set
Actual Time 7:12 AM CDT 6:14 PM CDT
Civil Twilight 6:44 AM CDT 6:42 PM CDT
Nautical Twilight 6:11 AM CDT 7:14 PM CDT
Astronomical Twilight 5:39 AM CDT 7:47 PM CDT
Moon 8:38 AM CDT (10/16) 6:55 PM CDT (10/16)
Length of Visible Light 11h 57m
Length of Day
11h 01m
New Moon, 2% of the Moon is Illuminated
Oct 16
New Moon
Oct 21
First Quarter
Oct 29
Full
Nov 6
Last Quarter
Nov 13
New

Hourly Weather History & Observations

Time (CDT) Temp. Windchill Dew Point Humidity Pressure Visibility Wind Dir Wind Speed Gust Speed Precip Events Conditions
12:15 AM 44.8 °F 40.4 °F 39.6 °F 82% 29.94 in 10.0 mi SSE 8.1 mph - N/A   Clear
12:35 AM 43.9 °F 38.8 °F 39.0 °F 83% 29.94 in 10.0 mi SSE 9.2 mph - N/A   Clear
12:55 AM 43.7 °F 38.6 °F 39.2 °F 84% 29.94 in 10.0 mi SSE 9.2 mph - N/A   Clear
1:15 AM 41.2 °F 37.3 °F 37.2 °F 86% 29.94 in 10.0 mi SSE 5.8 mph - N/A   Clear
1:35 AM 41.9 °F 37.5 °F 38.5 °F 88% 29.93 in 10.0 mi SSE 6.9 mph - N/A   Clear
1:55 AM 42.8 °F 38.6 °F 39.2 °F 87% 29.93 in 10.0 mi SSE 6.9 mph - N/A   Clear
2:15 AM 43.7 °F 39.1 °F 39.7 °F 86% 29.93 in 10.0 mi SSE 8.1 mph - N/A   Clear
2:35 AM 45.0 °F 41.2 °F 40.6 °F 85% 29.92 in 10.0 mi SSE 6.9 mph - N/A   Clear
2:55 AM 46.4 °F 41.9 °F 41.0 °F 81% 29.91 in 10.0 mi SSE 9.2 mph - N/A   Clear
3:15 AM 46.4 °F 41.9 °F 41.4 °F 83% 29.90 in 10.0 mi SSE 9.2 mph - N/A   Clear
3:35 AM 45.5 °F 41.8 °F 40.6 °F 83% 29.90 in 10.0 mi SSE 6.9 mph - N/A   Clear
3:55 AM 43.7 °F 39.1 °F 39.7 °F 86% 29.90 in 10.0 mi SSE 8.1 mph - N/A   Clear
4:15 AM 43.2 °F 39.0 °F 39.6 °F 87% 29.89 in 10.0 mi SE 6.9 mph - N/A   Clear
4:35 AM 43.7 °F 39.7 °F 40.1 °F 87% 29.87 in 10.0 mi ESE 6.9 mph - N/A   Clear
4:55 AM 43.7 °F 38.6 °F 39.4 °F 85% 29.86 in 10.0 mi SE 9.2 mph - N/A   Clear
5:15 AM 44.6 °F 39.2 °F 39.2 °F 81% 29.85 in 10.0 mi ESE 10.4 mph - N/A   Clear
5:35 AM 44.1 °F 40.1 °F 39.7 °F 85% 29.86 in 10.0 mi ESE 6.9 mph - N/A   Clear
5:55 AM 43.7 °F 38.6 °F 39.4 °F 85% 29.84 in 10.0 mi ESE 9.2 mph - N/A   Clear
6:15 AM 43.7 °F 39.1 °F 39.7 °F 86% 29.84 in 10.0 mi ESE 8.1 mph - N/A   Clear
6:35 AM 44.6 °F 41.4 °F 41.0 °F 87% 29.84 in 10.0 mi East 5.8 mph - N/A   Clear
6:55 AM 41.2 °F 36.6 °F 38.3 °F 89% 29.85 in 10.0 mi ESE 6.9 mph - N/A   Clear
7:15 AM 43.7 °F 40.3 °F 40.3 °F 88% 29.83 in 10.0 mi East 5.8 mph - N/A   Clear
7:35 AM 43.7 °F 39.7 °F 40.1 °F 87% 29.84 in 10.0 mi ESE 6.9 mph - N/A   Clear
7:55 AM 45.0 °F 41.8 °F 41.0 °F 86% 29.84 in 10.0 mi ESE 5.8 mph - N/A   Clear
8:15 AM 44.6 °F 41.4 °F 41.0 °F 87% 29.83 in 10.0 mi East 5.8 mph - N/A   Clear
8:35 AM 47.5 °F - 43.0 °F 84% 29.83 in 10.0 mi East 6.9 mph - N/A   Clear
8:55 AM 49.1 °F - 44.1 °F 83% 29.81 in 10.0 mi ESE 9.2 mph - N/A   Clear
9:15 AM 54.0 °F - 47.7 °F 79% 29.81 in 10.0 mi ESE 10.4 mph - N/A   Clear
9:35 AM 54.0 °F - 46.8 °F 77% 29.80 in 10.0 mi ESE 10.4 mph - N/A   Clear
9:55 AM 55.4 °F - 46.6 °F 72% 29.79 in 10.0 mi ESE 9.2 mph - N/A   Clear
10:15 AM 59.0 °F - 48.4 °F 68% 29.77 in 10.0 mi ESE 13.8 mph 18.4 mph N/A   Clear
10:35 AM 61.0 °F - 47.7 °F 62% 29.76 in 10.0 mi SE 21.9 mph - N/A   Clear
10:55 AM 61.5 °F - 46.6 °F 58% 29.75 in 10.0 mi SE 18.4 mph 25.3 mph N/A   Clear
11:15 AM 64.0 °F - 46.4 °F 53% 29.74 in 10.0 mi SE 21.9 mph 27.6 mph N/A   Clear
11:35 AM 64.0 °F - 46.4 °F 53% 29.73 in 10.0 mi SE 20.7 mph 31.1 mph N/A   Clear
11:55 AM 64.6 °F - 45.7 °F 50% 29.72 in 10.0 mi SE 24.2 mph 29.9 mph N/A   Clear
12:15 PM 66.2 °F - 46.6 °F 49% 29.69 in 10.0 mi SE 23.0 mph 29.9 mph N/A   Clear
12:35 PM 66.9 °F - 47.5 °F 50% 29.68 in 10.0 mi SE 17.3 mph 28.8 mph N/A   Clear
12:55 PM 67.5 °F - 47.7 °F 49% 29.66 in 10.0 mi SE 20.7 mph 27.6 mph N/A   Clear
1:15 PM 68.5 °F - 48.6 °F 49% 29.64 in 10.0 mi SE 24.2 mph - N/A   Clear
1:35 PM 69.3 °F - 48.9 °F 48% 29.62 in 10.0 mi SE 21.9 mph 31.1 mph N/A   Clear
1:55 PM 69.4 °F - 48.7 °F 48% 29.61 in 10.0 mi SE 20.7 mph 32.2 mph N/A   Clear
2:15 PM 70.5 °F - 50.2 °F 48% 29.60 in 10.0 mi SSE 23.0 mph 29.9 mph N/A   Clear
2:35 PM 71.8 °F - 51.1 °F 48% 29.58 in 10.0 mi SE 20.7 mph 32.2 mph N/A   Clear
2:55 PM 71.6 °F - 51.6 °F 49% 29.57 in 10.0 mi SE 21.9 mph 31.1 mph N/A   Clear
3:15 PM 71.6 °F - 51.8 °F 50% 29.57 in 10.0 mi SSE 19.6 mph 31.1 mph N/A   Clear
3:35 PM 71.8 °F - 52.3 °F 50% 29.57 in 10.0 mi SSE 24.2 mph 29.9 mph N/A   Clear
3:55 PM 71.8 °F - 51.6 °F 49% 29.55 in 10.0 mi SSE 21.9 mph 27.6 mph N/A   Clear
4:15 PM 71.8 °F - 52.7 °F 51% 29.54 in 10.0 mi SSE 20.7 mph 26.5 mph N/A   Clear
4:35 PM 71.8 °F - 52.9 °F 51% 29.54 in 10.0 mi SSE 13.8 mph 18.4 mph N/A   Clear
4:55 PM 69.4 °F - 52.2 °F 54% 29.54 in 10.0 mi South 15.0 mph 19.6 mph N/A   Clear
5:15 PM 69.3 °F - 52.7 °F 56% 29.54 in 10.0 mi SSE 10.4 mph - N/A   Clear
5:35 PM 68.9 °F - 54.1 °F 59% 29.54 in 10.0 mi SSE 6.9 mph - N/A   Clear
5:55 PM 67.5 °F - 53.8 °F 61% 29.52 in 10.0 mi SE 10.4 mph - N/A   Scattered Clouds
6:15 PM 66.6 °F - 53.8 °F 63% 29.52 in 10.0 mi SE 10.4 mph - N/A   Clear
6:35 PM 65.8 °F - 53.8 °F 65% 29.51 in 10.0 mi SE 15.0 mph - N/A   Clear
6:55 PM 66.6 °F - 54.0 °F 64% 29.51 in 10.0 mi SE 17.3 mph - N/A   Clear
7:15 PM 65.8 °F - 53.6 °F 65% 29.52 in 10.0 mi SSE 11.5 mph - N/A   Clear
7:35 PM 66.0 °F - 53.6 °F 64% 29.51 in 10.0 mi SE 12.7 mph - N/A   Clear
7:55 PM 65.3 °F - 53.2 °F 65% 29.51 in 10.0 mi SE 15.0 mph - N/A   Clear
8:15 PM 65.3 °F - 54.0 °F 67% 29.51 in 10.0 mi SSE 16.1 mph - N/A   Clear
8:35 PM 64.0 °F - 53.6 °F 69% 29.51 in 10.0 mi SSE 13.8 mph - N/A   Scattered Clouds
8:55 PM 64.4 °F - 53.6 °F 68% 29.51 in 10.0 mi SSE 16.1 mph - N/A   Mostly Cloudy
9:15 PM 64.0 °F - 54.5 °F 71% 29.51 in 10.0 mi SSE 15.0 mph - N/A   Mostly Cloudy
9:35 PM 64.0 °F - 54.1 °F 70% 29.51 in 10.0 mi SSE 15.0 mph 20.7 mph N/A   Scattered Clouds
9:55 PM 64.0 °F - 54.7 °F 72% 29.51 in 10.0 mi SSE 15.0 mph 20.7 mph N/A   Clear
10:15 PM 64.4 °F - 55.4 °F 73% 29.51 in 10.0 mi SSE 13.8 mph - N/A   Clear
10:35 PM 63.1 °F - 54.7 °F 74% 29.51 in 10.0 mi South 12.7 mph 18.4 mph N/A   Clear
10:55 PM 64.0 °F - 54.9 °F 72% 29.51 in 10.0 mi South 15.0 mph 20.7 mph N/A   Clear
11:15 PM 64.0 °F - 54.0 °F 70% 29.50 in 10.0 mi South 17.3 mph 21.9 mph N/A   Clear
11:35 PM 64.4 °F - 53.6 °F 68% 29.50 in 10.0 mi South 16.1 mph 21.9 mph N/A   Clear
11:55 PM 64.0 °F - 53.6 °F 69% 29.51 in 10.0 mi South 16.1 mph 20.7 mph N/A   Clear